User: anonymous   Login
Location: Oshawa
(43.9000°N, 78.8670°W)
Time: 21:48:34
(UTC-05:00)
Language:

SPOT 5 - Orbit

View from above orbital plane
View from above orbital plane
View from above satellite
View from above satellite

Ground track
Ground track

The orbit data is extracted from the following two-line orbital elements,

1 27421U 02021A   17051.46700862 -.00000000  00000-0  12032-4 0  9991
2 27421  98.4212 114.5520 0134883 326.3470  32.9213 14.51841597768730
Epoch (UTC): 20 February 2017 11:12:29
Eccentricity: 0.0134883
inclination: 98.4212°
perigee height: 624 km
apogee height: 815 km
right ascension of ascending node: 114.5520°
argument of perigee: 326.3470°
revolutions per day: 14.51841597
mean anomaly at epoch: 32.9213°
orbit number at epoch: 76873

The dashed part of the orbit path shows where the satellite is in the earth's shadow,  

DLR